Location: Ajisawe
(8.4333°N, 4.3833°E)
Time: 13:41:55
(UTC+00:00)

Courier 1B Rocket - Pass Details

Date: 30 April 2021
Orbit: 920 x 1202 km, 28.2° (Epoch: 07 May)

Event Time Altitude Azimuth Distance (km) Brightness Sun altitude
Rises 20:03:32 0° 311° (NW) 3,605 9.0 -31.5°
Reaches altitude 10° 20:06:22 10° 321° (NW) 2,692 8.0 -32.2°
Enters shadow 20:11:24 33° 10° (N) 1,623 6.2 -33.3°
Maximum altitude 20:12:11 33° 24° (NNE) 1,604 - -33.5°
Drops below altitude 10° 20:18:22 10° 87° (E) 2,867 - -34.9°
Sets 20:21:29 0° 96° (E) 3,871 - -35.6°
